Weather History for KCEY - February, 2014

Change the Weather History Date:

Thursday, February 6, 2014

  Actual Average (KPAH) Record (KPAH)
Temperature  
Mean Temperature 16 °F 37 °F  
Max Temperature 19 °F 46 °F 71 °F (1938)
Min Temperature 12 °F 27 °F 1 °F (1978)
Degree Days  
Heating Degree Days 48 28  
Month to date heating degree days 172  
Since 1 July heating degree days 2745  
Cooling Degree Days 0 0  
Month to date cooling degree days 0  
Year to date cooling degree days 0  
Moisture  
Dew Point 14 °F    
Average Humidity 90    
Maximum Humidity 93    
Minimum Humidity 79    
Precipitation  
Precipitation 0.00 in 0.14 in 2.05 in (1946)
Month to date precipitation 0.86  
Year to date precipitation 4.54  
Snow  
Snow 0.00 in 0.20 in 4.80 in (2003)
Month to date snowfall 0.8  
Since 1 July snowfall 6.1  
Snow Depth -    
Sea Level Pressure  
Sea Level Pressure 30.49 in    
Wind  
Wind Speed 10 mph (North)    
Max Wind Speed 14 mph    
Max Gust Speed 18 mph    
Visibility 10 miles    
Events      
T = Trace of Precipitation, MM = Missing Value Source: NWS Daily Summary

Daily Weather History Graph

Daily Weather History Graph

Search for Another Location

Airport or City:

Trip Planner

Search our weather history database for the weather conditions in past years. The results will help you decide how hot, cold, wet, or windy it might be!

Date:

Astronomy

Feb. 06, 2014 Rise Set
Actual Time 6:50 AM CST 5:24 PM CST
Civil Twilight 6:24 AM CST 5:51 PM CST
Nautical Twilight 5:53 AM CST 6:22 PM CST
Astronomical Twilight 5:23 AM CST 6:52 PM CST
Moon 10:56 AM CST (2/6) 12:06 AM CST (2/6)
Length of Visible Light 11h 27m
Length of Day
10h 33m
Waxing Crescent, 49% of the Moon is Illuminated
Feb 6
Waxing Crescent
Feb 6
First Quarter
Feb 14
Full
Feb 22
Last Quarter
Mar 1
New

Hourly Weather History & Observations

Time (CST) Temp. Windchill Dew Point Humidity Pressure Visibility Wind Dir Wind Speed Gust Speed Precip Events Conditions
12:15 AM 19.4 °F 6.6 °F 17.6 °F 93% 30.47 in 10.0 mi NNW 12.7 mph - N/A   Overcast
12:35 AM 19.4 °F 7.2 °F 15.8 °F 86% 30.47 in 10.0 mi North 11.5 mph - N/A   Overcast
12:55 AM 19.4 °F 10.4 °F 17.6 °F 93% 30.48 in 10.0 mi NNW 6.9 mph - N/A   Overcast
1:15 AM 19.4 °F 7.2 °F 17.6 °F 93% 30.47 in 10.0 mi North 11.5 mph - N/A   Overcast
1:35 AM 19.4 °F 7.9 °F 15.8 °F 86% 30.45 in 10.0 mi North 10.4 mph 17.3 mph N/A   Overcast
1:55 AM 19.4 °F 7.9 °F 15.8 °F 86% 30.45 in 10.0 mi North 10.4 mph - N/A   Overcast
2:15 AM 17.6 °F 5.7 °F 15.8 °F 93% 30.45 in 10.0 mi North 10.4 mph - N/A   Overcast
2:35 AM 17.6 °F 5.0 °F 15.8 °F 93% 30.44 in 10.0 mi North 11.5 mph - N/A   Overcast
2:55 AM 17.6 °F 6.4 °F 15.8 °F 93% 30.45 in 10.0 mi NNW 9.2 mph - N/A   Overcast
3:15 AM 17.6 °F 7.3 °F 15.8 °F 93% 30.45 in 10.0 mi North 8.1 mph - N/A   Overcast
3:35 AM 17.6 °F 5.7 °F 15.8 °F 93% 30.46 in 10.0 mi NNW 10.4 mph - N/A   Overcast
3:55 AM 17.6 °F 5.7 °F 15.8 °F 93% 30.47 in 10.0 mi NNW 10.4 mph - N/A   Overcast
4:15 AM 17.6 °F 7.3 °F 15.8 °F 93% 30.47 in 10.0 mi NNW 8.1 mph - N/A   Overcast
4:35 AM 17.6 °F 7.3 °F 15.8 °F 93% 30.47 in 9.0 mi NNW 8.1 mph - N/A   Overcast
4:55 AM 17.6 °F 5.7 °F 15.8 °F 93% 30.47 in 10.0 mi North 10.4 mph - N/A   Overcast
5:15 AM 17.6 °F 5.7 °F 15.8 °F 93% 30.47 in 10.0 mi North 10.4 mph - N/A   Overcast
5:35 AM 17.6 °F 5.7 °F 15.8 °F 93% 30.48 in 10.0 mi North 10.4 mph - N/A   Overcast
5:55 AM 17.6 °F 3.7 °F 14.0 °F 86% 30.50 in 9.0 mi NNW 13.8 mph 18.4 mph N/A   Overcast
6:15 AM 17.6 °F 5.7 °F 14.0 °F 86% 30.51 in 7.0 mi NNW 10.4 mph - N/A   Overcast
6:35 AM 15.8 °F 4.2 °F 14.0 °F 93% 30.50 in 10.0 mi NNW 9.2 mph - N/A   Overcast
6:55 AM 15.8 °F 2.7 °F 14.0 °F 93% 30.50 in 8.0 mi North 11.5 mph - N/A   Overcast
7:15 AM 15.8 °F 2.1 °F 14.0 °F 93% 30.52 in 10.0 mi NNW 12.7 mph - N/A   Overcast
7:35 AM 15.8 °F 2.7 °F 14.0 °F 93% 30.52 in 10.0 mi North 11.5 mph 16.1 mph N/A   Overcast
7:55 AM 15.8 °F 2.7 °F 14.0 °F 93% 30.53 in 7.0 mi North 11.5 mph - N/A   Overcast
8:15 AM 15.8 °F 6.1 °F 14.0 °F 93% 30.54 in 5.0 mi NNW 6.9 mph - N/A   Overcast
8:35 AM 15.8 °F 3.4 °F 14.0 °F 93% 30.54 in 6.0 mi NNW 10.4 mph - N/A   Overcast
8:55 AM 15.8 °F 2.7 °F 14.0 °F 93% 30.54 in 7.0 mi North 11.5 mph - N/A   Overcast
9:15 AM 15.8 °F 2.7 °F 14.0 °F 93% 30.55 in 10.0 mi North 11.5 mph - N/A   Overcast
9:35 AM 15.8 °F 3.4 °F 14.0 °F 93% 30.55 in 10.0 mi NNW 10.4 mph - N/A   Overcast
9:55 AM 17.6 °F 6.4 °F 14.0 °F 86% 30.55 in 10.0 mi North 9.2 mph - N/A   Overcast
10:15 AM 17.6 °F 6.4 °F 14.0 °F 86% 30.54 in 10.0 mi North 9.2 mph - N/A   Overcast
10:35 AM 17.6 °F 8.2 °F 14.0 °F 86% 30.54 in 10.0 mi NNE 6.9 mph - N/A   Mostly Cloudy
10:55 AM 17.6 °F 7.3 °F 14.0 °F 86% 30.53 in 10.0 mi North 8.1 mph - N/A   Overcast
11:15 AM 17.6 °F 5.7 °F 15.8 °F 93% 30.52 in 10.0 mi North 10.4 mph - N/A   Overcast
11:35 AM 17.6 °F 9.3 °F 15.8 °F 93% 30.52 in 10.0 mi NNE 5.8 mph - N/A   Overcast
11:55 AM 17.6 °F 7.3 °F 15.8 °F 93% 30.51 in 10.0 mi North 8.1 mph - N/A   Overcast
12:15 PM 17.6 °F 7.3 °F 15.8 °F 93% 30.50 in 10.0 mi North 8.1 mph - N/A   Overcast
12:35 PM 17.6 °F 6.4 °F 15.8 °F 93% 30.49 in 10.0 mi NNW 9.2 mph - N/A   Overcast
12:55 PM 17.6 °F 8.2 °F 15.8 °F 93% 30.48 in 10.0 mi North 6.9 mph - N/A   Overcast
1:15 PM 17.6 °F 6.4 °F 15.8 °F 93% 30.47 in 9.0 mi North 9.2 mph - N/A   Overcast
1:35 PM 17.6 °F 7.3 °F 15.8 °F 93% 30.47 in 10.0 mi North 8.1 mph - N/A   Overcast
1:55 PM 17.6 °F 6.4 °F 15.8 °F 93% 30.46 in 10.0 mi North 9.2 mph - N/A   Overcast
2:15 PM 17.6 °F 5.0 °F 15.8 °F 93% 30.46 in 10.0 mi North 11.5 mph - N/A   Overcast
2:55 PM 17.6 °F 7.3 °F 15.8 °F 93% 30.47 in 10.0 mi North 8.1 mph - N/A   Overcast
3:15 PM 17.6 °F 7.3 °F 15.8 °F 93% 30.47 in 10.0 mi NNE 8.1 mph - N/A   Overcast
3:35 PM 17.6 °F 6.4 °F 15.8 °F 93% 30.47 in 9.0 mi North 9.2 mph - N/A   Overcast
3:55 PM 17.6 °F 6.4 °F 15.8 °F 93% 30.48 in 10.0 mi North 9.2 mph - N/A   Overcast
4:15 PM 17.6 °F 8.2 °F 15.8 °F 93% 30.48 in 10.0 mi NNW 6.9 mph - N/A   Overcast
4:35 PM 17.6 °F 7.3 °F 15.8 °F 93% 30.48 in 10.0 mi North 8.1 mph - N/A   Overcast
4:55 PM 17.6 °F 7.3 °F 14.0 °F 86% 30.49 in 10.0 mi North 8.1 mph - N/A   Overcast
5:15 PM 17.6 °F 8.2 °F 14.0 °F 86% 30.48 in 10.0 mi North 6.9 mph - N/A   Overcast
5:35 PM 17.6 °F 8.2 °F 14.0 °F 86% 30.49 in 10.0 mi North 6.9 mph - N/A   Overcast
5:55 PM 17.6 °F 7.3 °F 14.0 °F 86% 30.49 in 10.0 mi North 8.1 mph - N/A   Overcast
6:15 PM 17.6 °F 8.2 °F 14.0 °F 86% 30.49 in 10.0 mi North 6.9 mph - N/A   Overcast
6:35 PM 15.8 °F 6.1 °F 14.0 °F 93% 30.49 in 10.0 mi North 6.9 mph - N/A   Overcast
6:55 PM 15.8 °F 5.1 °F 14.0 °F 93% 30.48 in 10.0 mi North 8.1 mph - N/A   Overcast
7:15 PM 15.8 °F 8.6 °F 14.0 °F 93% 30.48 in 10.0 mi North 4.6 mph - N/A   Overcast
7:35 PM 15.8 °F 5.1 °F 14.0 °F 93% 30.47 in 10.0 mi NNE 8.1 mph - N/A   Overcast
7:55 PM 15.8 °F 5.1 °F 14.0 °F 93% 30.46 in 10.0 mi NNE 8.1 mph - N/A   Overcast
8:15 PM 15.8 °F 6.1 °F 12.2 °F 86% 30.47 in 10.0 mi NNE 6.9 mph - N/A   Overcast
8:35 PM 15.8 °F 7.2 °F 12.2 °F 86% 30.46 in 10.0 mi NE 5.8 mph - N/A   Overcast
8:55 PM 15.8 °F 6.1 °F 12.2 °F 86% 30.46 in 10.0 mi NE 6.9 mph - N/A   Overcast
9:15 PM 15.8 °F 6.1 °F 12.2 °F 86% 30.46 in 10.0 mi NE 6.9 mph - N/A   Overcast
9:35 PM 15.8 °F 6.1 °F 12.2 °F 86% 30.47 in 10.0 mi NNE 6.9 mph - N/A   Overcast
9:55 PM 15.8 °F 6.1 °F 12.2 °F 86% 30.47 in 10.0 mi NE 6.9 mph - N/A   Overcast
10:15 PM 15.8 °F 4.2 °F 12.2 °F 86% 30.47 in 10.0 mi NNE 9.2 mph - N/A   Overcast
10:35 PM 14.0 °F 1.2 °F 10.4 °F 86% 30.48 in 10.0 mi NNE 10.4 mph - N/A   Overcast
10:55 PM 14.0 °F 2.9 °F 10.4 °F 86% 30.47 in 10.0 mi North 8.1 mph - N/A   Overcast
11:15 PM 14.0 °F 1.2 °F 10.4 °F 86% 30.47 in 10.0 mi NNE 10.4 mph - N/A   Overcast
11:35 PM 14.0 °F 1.2 °F 10.4 °F 86% 30.47 in 10.0 mi North 10.4 mph - N/A   Overcast
11:55 PM 12.2 °F 0.7 °F 6.8 °F 79% 30.47 in 10.0 mi North 8.1 mph - N/A   Overcast